Home   Weather   Gävle   Past weeks

Flag for Sweden Past Weather in Gävle, Sweden — Yesterday and Last 2 Weeks

Now
44 °F

Scattered clouds.


Feels Like: 41 °F
Forecast: 34 / 48 °F
Wind: 5 mph from North

Location: Films Kyrkby

Current Time: Apr 29, 2017 at 3:52:36 pm

Latest Report: Apr 29, 2017 at 3:00 pm


Visibility: 25 mi

Pressure: 30.16 "Hg

Humidity: 57%

Dew Point: 29 °F

Location of GävleLocation

Past Weather in Gävle — Graph

°F

Gävle Temperature Yesterday

Maximum temperature yesterday: 47 °F (at 11:00 am)
Minimum temperature yesterday: 27 °F (at 1:00 am)
Average temperature yesterday: 37 °F

High & Low Weather Summary for the Past Weeks

 TemperatureHumidityPressure
High54 °F (Apr 21, 12:00 pm)100% (Apr 25, 3:00 am)30.51 "Hg (Apr 25, 3:00 am)
Low14 °F (Apr 15, 4:00 am)26% (Apr 19, 4:00 pm)29.23 "Hg (Apr 25, 3:00 am)
Average35 °F72%29.88 "Hg
* Reported Apr 14 2:00 pm — Apr 29 2:00 pm, Gävle, Weather by CustomWeather, © 2017

Note: Actual official high and low records may vary slightly from our data, if they occured in-between our weather recording intervals... More about our weather records

Advertising

Gävle Weather History for the Previous 24 Hours

Scroll right to see more
 ConditionsComfort  
Time TempWeatherWind HumidityBarometerVisibility
2:00 pm
Sat, Apr 29
46 °FScattered clouds.5 mph58%30.16 "Hg25 mi
1:00 pm45 °FSunny.5 mph59%30.16 "Hg25 mi
12:00 pm44 °FSunny.5 mph62%30.17 "Hg25 mi
11:00 am44 °FSunny.5 mph61%30.19 "Hg22 mi
10:00 am43 °FSunny.5 mph65%30.19 "Hg22 mi
9:00 am41 °FSunny.3 mph72%30.19 "Hg22 mi
8:00 am40 °FSunny.3 mph80%30.19 "Hg25 mi
7:00 am38 °FSunny.2 mph87%30.19 "Hg22 mi
6:00 am33 °FSunny.1 mph97%30.20 "Hg13 mi
5:00 am31 °FSunny.1 mph97%30.20 "Hg9 mi
4:00 am31 °FClear.1 mph99%30.19 "Hg9 mi
3:00 am31 °FClear.1 mph98%30.20 "Hg8 mi
2:00 am30 °FFog.1 mph99%30.21 "Hg4 mi
1:00 am30 °FFog.1 mph98%30.21 "Hg6 mi
12:00 am31 °FFog.1 mph98%30.22 "Hg6 mi
11:00 pm
Fri, Apr 28
31 °FClear.1 mph96%30.23 "Hg6 mi
10:00 pm32 °FClear.1 mph94%30.24 "Hg9 mi
9:00 pm34 °FClear.2 mph88%30.24 "Hg17 mi
8:00 pm36 °FSunny.3 mph82%30.23 "Hg22 mi
7:00 pm38 °FSunny.3 mph72%30.22 "Hg28 mi
6:00 pm41 °FSunny.3 mph63%30.20 "Hg25 mi
5:00 pm43 °FSunny.3 mph53%30.19 "Hg25 mi
4:00 pm43 °FSunny.6 mph53%30.19 "Hg25 mi
3:00 pm44 °FSunny.5 mph55%30.18 "Hg25 mi
Weather by CustomWeather, © 2017

See weather overviewHow to use our weather pages